TimeEST,TemperatureF,Dew PointF,Humidity,Sea Level PressureIn,VisibilityMPH,Wind Direction,Wind SpeedMPH,Gust SpeedMPH,PrecipitationIn,Events,Conditions,WindDirDegrees,DateUTC
12:53 AM,75.0,72.0,90,30.03,10.0,SE,3.5,-,N/A,,Partly Cloudy,140,2012-12-09 05:53:00
1:53 AM,73.9,72.0,93,30.02,10.0,Calm,Calm,-,N/A,,Scattered Clouds,0,2012-12-09 06:53:00
2:21 AM,75.2,71.6,89,30.02,10.0,ESE,3.5,-,N/A,,Mostly Cloudy,120,2012-12-09 07:21:00
2:53 AM,73.9,72.0,93,30.01,10.0,Calm,Calm,-,N/A,,Mostly Cloudy,0,2012-12-09 07:53:00
3:37 AM,73.4,71.6,94,30.02,10.0,Calm,Calm,-,N/A,,Partly Cloudy,0,2012-12-09 08:37:00
3:53 AM,73.9,71.1,91,30.02,10.0,Calm,Calm,-,N/A,,Partly Cloudy,0,2012-12-09 08:53:00
4:53 AM,73.9,71.1,91,30.03,10.0,Calm,Calm,-,N/A,,Scattered Clouds,0,2012-12-09 09:53:00
5:53 AM,73.0,71.1,93,30.04,10.0,Calm,Calm,-,N/A,,Scattered Clouds,0,2012-12-09 10:53:00
6:53 AM,71.6,71.6,100,30.05,10.0,Calm,Calm,-,N/A,,Mostly Cloudy,0,2012-12-09 11:53:00
7:53 AM,73.0,72.0,96,30.07,10.0,Calm,Calm,-,N/A,,Mostly Cloudy,0,2012-12-09 12:53:00
8:53 AM,79.0,73.0,82,30.08,10.0,Calm,Calm,-,N/A,,Scattered Clouds,0,2012-12-09 13:53:00
9:53 AM,79.0,73.0,82,30.10,10.0,ESE,4.6,-,N/A,,Mostly Cloudy,120,2012-12-09 14:53:00
10:53 AM,81.0,73.9,79,30.09,10.0,SSE,8.1,-,N/A,,Mostly Cloudy,150,2012-12-09 15:53:00
11:53 AM,81.0,72.0,74,30.07,10.0,ESE,10.4,-,N/A,,Mostly Cloudy,120,2012-12-09 16:53:00
12:53 PM,82.0,72.0,71,30.04,10.0,SE,8.1,-,N/A,,Mostly Cloudy,130,2012-12-09 17:53:00
1:53 PM,82.9,73.0,72,30.02,10.0,ESE,9.2,-,N/A,,Mostly Cloudy,120,2012-12-09 18:53:00
2:53 PM,82.0,72.0,71,30.01,10.0,South,6.9,-,N/A,,Mostly Cloudy,170,2012-12-09 19:53:00
3:53 PM,82.0,72.0,71,30.01,10.0,Variable,4.6,-,N/A,,Scattered Clouds,0,2012-12-09 20:53:00
4:53 PM,80.1,73.0,79,30.02,10.0,SE,10.4,-,N/A,,Scattered Clouds,130,2012-12-09 21:53:00
5:53 PM,78.1,73.9,87,30.03,10.0,SE,5.8,-,N/A,,Scattered Clouds,140,2012-12-09 22:53:00
6:53 PM,77.0,73.0,88,30.04,10.0,ESE,5.8,-,N/A,,Partly Cloudy,120,2012-12-09 23:53:00
7:53 PM,77.0,73.0,88,30.04,10.0,SE,4.6,-,N/A,,Scattered Clouds,130,2012-12-10 00:53:00
8:53 PM,75.9,73.9,94,30.05,10.0,SE,4.6,-,N/A,,Scattered Clouds,140,2012-12-10 01:53:00
9:53 PM,75.9,73.9,94,30.05,10.0,SSE,4.6,-,N/A,,Partly Cloudy,150,2012-12-10 02:53:00
10:53 PM,75.9,73.0,91,30.06,10.0,SE,3.5,-,N/A,,Partly Cloudy,130,2012-12-10 03:53:00
11:53 PM,75.9,73.0,91,30.04,10.0,SE,4.6,-,N/A,,Partly Cloudy,130,2012-12-10 04:53:00